Weather in Sumskiy Posad

Russia / Republic of Karelia     64°14′24″N   35°24′30″E
temp.,
°C
wind,
m/s
gust,
m/s
humid.,
%
clouds,
%
prec.,
mm/h
press.,
hPa
HPBL,
m
18 september, sat
sat1800:00+6ne2569100 0.0 1028276
03:00+6ne3568100 0.0 1029291
06:00+6ne2575100 0.0 1030215
09:00+7ne2478100 0.1 1030402
12:00+8nne2367100 0.1 1031770
15:00+8nne346391 0.2 1031952
18:00+6nne3571100 0.1 1031248
21:00+5ne237580 0.1 103195
19 september, sun
sun1900:00+6ene2476100 0.1 1032139
03:00+6ene2273100 0.2 103277
06:00+6ne1272100 0.1 1033105
09:00+7nne2368100 0.3 1033278
12:00+8nne335686 0.1 10331217
15:00+8nne336129 0.1 10331058
18:00+7nne357498 0.1 1033249
21:00+5ene25805 0.1 1034105
20 september, mon
mon2000:00+3e12810 0.0 103564
03:00+3ene11855 0.0 103556
06:00+3ene12887 0.0 103667
09:00+7ene247372 0.0 1036350
12:00+8e345770 0.0 10361313
15:00+8ene345498 0.0 10351355
18:00+7ne2469100 0.0 1034166
21:00+6ene1275100 0.0 103341
21 september, tue
tue2100:00+5sse357193 0.0 1033189
03:00+2sse22818 0.0 103241
06:00+1sse23855 0.0 103146
09:00+4se23675 0.0 1031256
12:00+7ese235437 0.0 1029977
15:00+7e3357100 0.0 1028957
18:00+5ese247592 0.0 1027123
21:00+3ese118381 0.0 102728
22 september, wed
wed2200:00+2e11865 0.0 102629
03:00+2se11895 0.0 102524
06:00+1sse229187 0.0 102522
09:00+4sse23775 0.0 1024200
12:00+8se35600 0.0 1023686
15:00+10se23536 0.0 1022870
18:00+7ese357497 0.0 102190
21:00+4sse248536 0.0 102064